Regional Weather Roundup
Issued by NWS Sioux Falls, SD

Home | Current Version | Previous Version | Text Only | Print | Product List | Glossary Off
Versions: 1 2 3 4 5 6 7 8 9 10 11 12 13 14 15 16 17 18 19 20 21 22 23 24 25 26 27 28 29 30 31 32 33 34 35 36 37 38 39 40 41 42 43 44 45 46 47 48 49 50

000
ASUS43 KFSD 241410
RWRFSD

WEATHER ROUNDUP FOR SE SOUTH DAKOTA/SW MINNESOTA/NW IOWA
NATIONAL WEATHER SERVICE SIOUX FALLS SD
800 AM CST FRI NOV 24 2017

NOTE: "FAIR" INDICATES FEW OR NO CLOUDS BELOW 12,000 FEET WITH NO
SIGNIFICANT WEATHER AND OR OBSTRUCTIONS TO VISIBILITY.


SDZ038>040-050-052>070-241500-
SOUTHEAST SOUTH DAKOTA

CITY           SKY/WX    TMP DP  RH WIND       PRES   REMARKS
BROOKINGS      PTCLDY    35  33  92 CALM      29.42R
CHAMBERLAIN    CLEAR     45  39  80 W9        29.45S
HURON          MOCLDY    38  36  92 NE3       29.43R
MADISON        FAIR      43  41  93 W9        29.41R
MITCHELL       PTCLDY    49  38  65 W13       29.42R
SIOUX FALLS    CLEAR     39  37  92 S5        29.41F
WINNER         FAIR      54  39  57 W12       29.48R
YANKTON        CLEAR     43  37  79 SW9       29.44F
$$

MNZ071-072-080-081-089-090-097-098-241500-
SOUTHWEST MINNESOTA

CITY           SKY/WX    TMP DP  RH WIND       PRES   REMARKS
FAIRMONT       CLEAR     41  36  82 S15       29.40F
JACKSON        CLEAR     43  36  75 S12       29.40F
LUVERNE        CLEAR     28  27  93 CALM      29.43F
MARSHALL       CLOUDY    49  39  68 W15       29.36R
MONTEVIDEO     CLEAR     43  37  81 S3        29.33F
PIPESTONE      CLEAR     36  34  93 S3        29.41S
REDWOOD FALLS  CLEAR     46  37  71 SW7       29.36S
WINDOM         CLEAR     45  30  57 S13       29.40S
WORTHINGTON    CLEAR     44  38  79 SW17      29.41F
$$

IAZ001>003-012>014-020>022-031-032-NEZ013-014-SDZ071-241500-
NORTHWEST IOWA

CITY           SKY/WX    TMP DP  RH WIND       PRES   REMARKS
CHEROKEE       CLEAR     37  37 100 S3        29.45S
DENISON        CLEAR     46  39  76 SW8       29.50F
ESTHERVILLE    CLEAR     35  34  96 S10       29.41F WCI  27
LE MARS        CLEAR     37  36  93 S6        29.45S
ORANGE CITY    CLEAR     41  39  93 SW12      29.43F
SHELDON        CLEAR     39  36  87 S6        29.42F
SIOUX CITY     CLEAR     34  33  96 SE7       29.46F WCI  28
SPENCER        CLEAR     40  36  86 S8        29.42F
STORM LAKE     CLEAR     46  39  76 SW16      29.45S
$$

ABBREVIATIONS USED IN REMARKS
   TC - TEMPERATURE IN CELSIUS
  WCI - WIND CHILL INDEX
   HX - HEAT INDEX
  VSB - VISIBILITY





USA.gov is the U.S. government's official web portal to all federal, state and local government web resources and services.